Regional Weather Roundup
Issued by NWS State College, PA

Home | Current Version | Previous Version | Text Only | Print | Product List | Glossary On
Versions: 1 2 3 4 5 6 7 8 9 10 11 12 13 14 15 16 17 18 19 20 21 22 23 24 25 26 27 28 29 30 31 32 33 34 35 36 37 38 39 40 41 42 43 44 45 46 47 48 49 50
000
ASUS41 KCTP 250010
RWRCTP

REGIONAL WEATHER ROUNDUP
NATIONAL WEATHER SERVICE STATE COLLEGE PA
800 PM EDT SUN MAY 24 2015

Note: "fair" indicates few or no clouds below 12,000 feet with no
significant weather and/or obstructions to visibility.

* = STATION THAT DOES NOT REPORT PRECIPITATION /E.G. RAIN...SNOW...ETC/
    THUNDER OR FOG.

PAZ002>004-007>009-013>016-020>023-029>032-250100-
WESTERN PENNSYLVANIA

CITY           SKY/WX    TMP DP  RH WIND       PRES   REMARKS
ERIE           CLOUDY    74  43  32 CALM      30.19F
MEADVILLE      CLOUDY    72  46  39 CALM      30.22S
FRANKLIN*      CLOUDY    70  46  43 S5        30.24F
NEW CASTLE     FAIR      74  49  41 CALM      30.21F
BEAVER COUNTY  NOT AVBL
BUTLER*        MOCLDY    73  46  38 SE3       30.24S
PITTSBURGH INT MOCLDY    77  44  30 S5        30.21F
PITTSBURGH     MOCLDY    76  36  23 SE3       30.21F
INDIANA*       CLEAR     72  52  49 CALM      30.27S
LATROBE        MOCLDY    75  41  29 CALM      30.24F
WASHINGTON CO* MOCLDY    72  55  56 CALM      30.23F
$$

PAZ004>006-010>012-017>019-024>028-033>037-041-042-045-046-049>053-250100-
CENTRAL PENNSYLVANIA

CITY           SKY/WX    TMP DP  RH WIND       PRES   REMARKS
BRADFORD       CLOUDY    70  44  39 CALM      30.26S
DUBOIS         MOCLDY    73  44  35 CALM      30.25S
CLEARFIELD     MOCLDY    71  47  42 N3        30.25S
JOHNSTOWN      MOCLDY    71  42  35 N5        30.27S
ALTOONA        MOCLDY    73  43  33 S8        30.25S
STATE COLLEGE  CLEAR     73  45  35 CALM      30.24R
WILLIAMSPORT   MOCLDY    76  45  33 S8        30.19S
SELINSGROVE    PTCLDY    76  45  33 S3        30.22S
FT INDIANTOWN  CLOUDY    73  52  47 N2        30.24S
CAPITAL CITY   MOCLDY    76  45  33 S7        30.23S
HARRISBURG     MOCLDY    76  48  37 S6        30.23S
YORK           PTCLDY    69  49  48 SW3       30.25S
$$

PAZ038>040-043-044-047-048-054-055-060>062-067>071-250100-
EASTERN PENNSYLVANIA

CITY           SKY/WX    TMP DP  RH WIND       PRES   REMARKS
SCRANTON       MOCLDY    75  41  29 SW5       30.23R
MOUNT POCONO   PTCLDY    67  39  35 W5        30.27S
ALLENTOWN      PTCLDY    75  40  28 SW9       30.23S
QUAKERTOWN*    PTCLDY    75  41  29 SW3       30.26S
READING        MOCLDY    76  40  27 S5        30.24R
LANCASTER      MOCLDY    74  41  30 S3        30.24S
COATESVILLE    MOCLDY    72  54  53 CALM      30.28R
POTTSTOWN      MOCLDY    74  41  30 S3        30.26S
BLUE BELL      PTCLDY    77  48  36 SW3       30.25R
DOYLESTOWN     CLEAR     73  41  31 S3        30.24S
WILLOW GROVE   NOT AVBL
NORTH PHILA    CLEAR     78  39  24 SW9       30.26S
PHILADELPHIA   PTCLDY    77  41  27 SW9       30.26R
$$


USA.gov is the U.S. government's official web portal to all federal, state and local government web resources and services.